Tracking 26258 objects as of 3-Oct-2022
HD Live streaming from Space Station
objects crossing your sky now

STARLINK-4739

Track STARLINK-4739 now!
10-day predictions
STARLINK-4739 is classified as:


NORAD ID: 53792
Int'l Code: 2022-111V
Perigee: 355.8 km
Apogee: 358.1 km
Inclination: 53.2 °
Period: 91.5 minutes
Semi major axis: 6727 km
RCS: Unknown
Launch date: September 11, 2022
Source: United States (US)
Launch site: AIR FORCE EASTERN TEST RANGE (AFETR)
aabbcc
Your satellite tracking list
Your tracking list is empty




NASA's NSSDC Master Catalog

Two Line Element Set (TLE):
1 53792U 22111V   22275.91667824  .00056356  00000-0  40353-3 0  9997
2 53792  53.2161 158.9240 0001695 151.5817   8.0355 15.73184227  1309
Source of the keplerian elements: AFSPC